Location: El Limón
(10.3059°N, 67.6321°W)
Time: 04:21:51
(UTC+00:00)

PAYLOAD B - Pass Details

Date: 14 April 2024
Orbit: 848 x 870 km, 99.1° (Epoch: 21 May)

Event Time Altitude Azimuth Distance (km) Brightness Sun altitude
Exits shadow 00:26:07 50° 171° (S) 1,070 4.5 -26.0°
Maximum altitude 00:27:38 86° 256° (WSW) 858 4.1 -26.3°
Drops below altitude 10° 00:33:09 10° 346° (NNW) 2,484 7.0 -27.6°
Sets 00:35:32 0° 347° (NNW) 3,423 7.7 -28.2°
